PTZDH WARA-WARR

Flight info

Callsign PTZDH
Flight time 0h 49m
Altitude 4000
Route LW DCT PANDN DCT RUJAK DCT SIDRO DCT SBR DCT NAVY AREA 1 DCT KJUDN / LOCAL CIRCUIT
Aircraft E134/L-SDFGIRY/S

Departure

Time 2026-05-07 14:03
Airport Abdul Rachman Saleh Airport (WARA)

Arrival

Time 2026-05-07 14:52
Airport Juanda International Airport (WARR)
Time Latitude Longitude Altitude Speed Heading
2026-05-07 13:34 -7.93760 112.71516 1717 ft 0 kts 81°
2026-05-07 14:01 -7.93759 112.71521 1717 ft 0 kts 82°
2026-05-07 14:01 -7.93759 112.71525 1718 ft 0 kts 82°
2026-05-07 14:02 -7.93754 112.71554 1717 ft 10 kts 81°
2026-05-07 14:02 -7.93742 112.71616 1718 ft 4 kts 72°
2026-05-07 14:02 -7.93706 112.71628 1719 ft 14 kts 346°
2026-05-07 14:02 -7.93250 112.71522 1726 ft 134 kts 345°
2026-05-07 14:03 -7.92131 112.71195 1931 ft 199 kts 343°
2026-05-07 14:03 -7.90633 112.70784 2062 ft 247 kts 350°
2026-05-07 14:03 -7.88935 112.70497 2623 ft 243 kts 349°
2026-05-07 14:03 -7.87348 112.70238 3472 ft 224 kts 350°
2026-05-07 14:04 -7.85756 112.69979 3604 ft 239 kts 350°
2026-05-07 14:04 -7.84142 112.69714 4154 ft 232 kts 350°
2026-05-07 14:04 -7.83057 112.69536 4139 ft 245 kts 351°
2026-05-07 14:04 -7.81304 112.69240 3918 ft 271 kts 350°
2026-05-07 14:05 -7.78726 112.69012 4146 ft 290 kts
2026-05-07 14:05 -7.76730 112.69386 4149 ft 285 kts 12°
2026-05-07 14:05 -7.74872 112.69796 4122 ft 268 kts 12°
2026-05-07 14:05 -7.73084 112.70193 4134 ft 259 kts 12°
2026-05-07 14:06 -7.71355 112.70577 4140 ft 252 kts 12°
2026-05-07 14:06 -7.69657 112.70952 4140 ft 248 kts 11°
2026-05-07 14:06 -7.68522 112.71066 4146 ft 246 kts
2026-05-07 14:06 -7.66669 112.71096 4142 ft 244 kts
2026-05-07 14:07 -7.64659 112.71087 4144 ft 242 kts 358°
2026-05-07 14:07 -7.63581 112.71046 4143 ft 242 kts 357°
2026-05-07 14:07 -7.61361 112.70741 4136 ft 242 kts 354°
2026-05-07 14:07 -7.59688 112.70604 4143 ft 241 kts 355°
2026-05-07 14:08 -7.58575 112.70515 4143 ft 241 kts 355°
2026-05-07 14:08 -7.56345 112.70336 4143 ft 241 kts 355°
2026-05-07 14:08 -7.54678 112.70202 4143 ft 241 kts 355°
2026-05-07 14:08 -7.53567 112.70113 4143 ft 241 kts 355°
2026-05-07 14:09 -7.51340 112.70150 4141 ft 241 kts
2026-05-07 14:09 -7.49693 112.70452 4143 ft 241 kts 13°
2026-05-07 14:09 -7.48626 112.70775 4142 ft 241 kts 18°
2026-05-07 14:09 -7.46609 112.71729 4144 ft 241 kts 28°
2026-05-07 14:10 -7.45632 112.72268 4145 ft 241 kts 28°
2026-05-07 14:10 -7.43715 112.73328 4143 ft 241 kts 28°
2026-05-07 14:10 -7.42738 112.73868 4143 ft 241 kts 28°
2026-05-07 14:10 -7.41270 112.74678 4143 ft 241 kts 28°
2026-05-07 14:11 -7.39317 112.75765 4141 ft 241 kts 30°
2026-05-07 14:11 -7.37914 112.76681 4143 ft 241 kts 33°
2026-05-07 14:11 -7.36699 112.77826 4161 ft 240 kts 51°
2026-05-07 14:11 -7.36121 112.78789 4163 ft 240 kts 60°
2026-05-07 14:12 -7.35059 112.80767 4136 ft 241 kts 65°
2026-05-07 14:12 -7.34383 112.82310 4143 ft 241 kts 66°
2026-05-07 14:12 -7.34159 112.82824 4144 ft 241 kts 66°
2026-05-07 14:12 -7.33129 112.85440 4148 ft 241 kts 72°
2026-05-07 14:13 -7.32621 112.87045 4143 ft 241 kts 72°
2026-05-07 14:13 -7.32113 112.88653 4143 ft 241 kts 72°
2026-05-07 14:13 -7.31603 112.90264 4143 ft 241 kts 72°
2026-05-07 14:13 -7.31095 112.91871 4143 ft 241 kts 72°
2026-05-07 14:14 -7.30586 112.93480 4143 ft 241 kts 72°
2026-05-07 14:14 -7.30081 112.95089 4143 ft 241 kts 73°
2026-05-07 14:14 -7.29603 112.96704 4143 ft 241 kts 73°
2026-05-07 14:14 -7.29124 112.98321 4143 ft 241 kts 73°
2026-05-07 14:15 -7.28646 112.99937 4143 ft 241 kts 73°
2026-05-07 14:15 -7.28167 113.01555 4143 ft 241 kts 73°
2026-05-07 14:15 -7.27688 113.03174 4143 ft 241 kts 73°
2026-05-07 14:15 -7.27210 113.04789 4143 ft 241 kts 73°
2026-05-07 14:16 -7.26732 113.06407 4143 ft 241 kts 73°
2026-05-07 14:16 -7.26253 113.08025 4143 ft 241 kts 73°
2026-05-07 14:16 -7.25775 113.09642 4143 ft 241 kts 73°
2026-05-07 14:16 -7.25296 113.11260 4143 ft 241 kts 73°
2026-05-07 14:17 -7.24818 113.12876 4143 ft 241 kts 73°
2026-05-07 14:17 -7.24339 113.14493 4143 ft 241 kts 73°
2026-05-07 14:17 -7.23880 113.16046 4143 ft 241 kts 73°
2026-05-07 14:17 -7.23446 113.17514 4143 ft 241 kts 73°
2026-05-07 14:18 -7.22956 113.19169 4143 ft 241 kts 73°
2026-05-07 14:18 -7.22492 113.20736 4143 ft 241 kts 73°
2026-05-07 14:18 -7.22013 113.22355 4143 ft 241 kts 73°
2026-05-07 14:18 -7.21543 113.23941 4496 ft 223 kts 73°
2026-05-07 14:19 -7.21153 113.25251 4828 ft 180 kts 73°
2026-05-07 14:19 -7.20811 113.26395 4329 ft 156 kts 73°
2026-05-07 14:19 -7.20550 113.27440 3400 ft 152 kts 68°
2026-05-07 14:19 -7.19823 113.27962 2626 ft 142 kts
2026-05-07 14:20 -7.18865 113.28014 1527 ft 151 kts 343°
2026-05-07 14:20 -7.18319 113.27307 565 ft 146 kts 261°
2026-05-07 14:20 -7.18627 113.26323 495 ft 151 kts 248°
2026-05-07 14:20 -7.19080 113.25367 533 ft 149 kts 253°
2026-05-07 14:21 -7.18961 113.24345 465 ft 154 kts 302°
2026-05-07 14:21 -7.18004 113.23941 464 ft 187 kts 17°
2026-05-07 14:21 -7.17484 113.25097 753 ft 210 kts 115°
2026-05-07 14:21 -7.18667 113.25534 1199 ft 197 kts 210°
2026-05-07 14:22 -7.19672 113.24591 1127 ft 206 kts 203°
2026-05-07 14:22 -7.20753 113.25181 947 ft 203 kts 101°
2026-05-07 14:22 -7.20278 113.26307 1335 ft 183 kts 27°
2026-05-07 14:22 -7.19008 113.26604 1142 ft 196 kts 36°
2026-05-07 14:23 -7.18958 113.27860 1038 ft 239 kts 145°
2026-05-07 14:23 -7.20266 113.27380 1401 ft 222 kts 243°
2026-05-07 14:23 -7.20574 113.25772 460 ft 255 kts 271°
2026-05-07 14:23 -7.20509 113.24049 265 ft 231 kts 257°
2026-05-07 14:24 -7.21289 113.22884 956 ft 180 kts 230°
2026-05-07 14:24 -7.22089 113.22062 1516 ft 152 kts 226°
2026-05-07 14:24 -7.22875 113.21258 2287 ft 167 kts 225°
2026-05-07 14:24 -7.23724 113.20383 2128 ft 182 kts 225°
2026-05-07 14:25 -7.24428 113.19329 2091 ft 182 kts 245°
2026-05-07 14:25 -7.24571 113.18090 2089 ft 180 kts 281°
2026-05-07 14:25 -7.24302 113.16862 2085 ft 179 kts 283°
2026-05-07 14:25 -7.24025 113.15637 2082 ft 179 kts 283°
2026-05-07 14:26 -7.23683 113.14430 2083 ft 179 kts 289°
2026-05-07 14:26 -7.23283 113.13245 2081 ft 179 kts 289°
2026-05-07 14:26 -7.22868 113.12066 2080 ft 179 kts 293°
2026-05-07 14:26 -7.22372 113.10918 2082 ft 178 kts 294°
2026-05-07 14:27 -7.21877 113.09774 2081 ft 178 kts 291°
2026-05-07 14:27 -7.21676 113.08551 2090 ft 177 kts 266°
2026-05-07 14:27 -7.21821 113.07315 2083 ft 178 kts 262°
2026-05-07 14:27 -7.21983 113.06079 2082 ft 178 kts 262°
2026-05-07 14:28 -7.22144 113.04839 2082 ft 178 kts 262°
2026-05-07 14:28 -7.22306 113.03598 2082 ft 178 kts 262°
2026-05-07 14:28 -7.22468 113.02359 2081 ft 178 kts 262°
2026-05-07 14:28 -7.22630 113.01121 2081 ft 178 kts 262°
2026-05-07 14:29 -7.22791 112.99880 2081 ft 178 kts 262°
2026-05-07 14:29 -7.22953 112.98642 2081 ft 178 kts 262°
2026-05-07 14:29 -7.23115 112.97403 2081 ft 178 kts 262°
2026-05-07 14:29 -7.23277 112.96162 2081 ft 178 kts 262°
2026-05-07 14:30 -7.23438 112.94921 2081 ft 178 kts 262°
2026-05-07 14:30 -7.23600 112.93683 2081 ft 178 kts 262°
2026-05-07 14:30 -7.23762 112.92443 2081 ft 178 kts 262°
2026-05-07 14:30 -7.23924 112.91202 2081 ft 178 kts 262°
2026-05-07 14:31 -7.24085 112.89962 2081 ft 178 kts 262°
2026-05-07 14:31 -7.24247 112.88722 2081 ft 178 kts 262°
2026-05-07 14:31 -7.24409 112.87482 2081 ft 178 kts 262°
2026-05-07 14:31 -7.24571 112.86240 2081 ft 178 kts 262°
2026-05-07 14:32 -7.24732 112.85001 2081 ft 178 kts 262°
2026-05-07 14:32 -7.24895 112.83758 2081 ft 179 kts 262°
2026-05-07 14:32 -7.25056 112.82521 2081 ft 179 kts 262°
2026-05-07 14:32 -7.25218 112.81278 2081 ft 179 kts 262°
2026-05-07 14:33 -7.25380 112.80038 2081 ft 179 kts 262°
2026-05-07 14:33 -7.25552 112.78799 2077 ft 179 kts 256°
2026-05-07 14:33 -7.26253 112.77807 2081 ft 177 kts 212°
2026-05-07 14:33 -7.27426 112.77486 2093 ft 176 kts 186°
2026-05-07 14:34 -7.28655 112.77471 2085 ft 177 kts 176°
2026-05-07 14:34 -7.29865 112.77551 2211 ft 171 kts 176°
2026-05-07 14:34 -7.31049 112.77639 2906 ft 177 kts 175°
2026-05-07 14:34 -7.32360 112.77718 3101 ft 205 kts 176°
2026-05-07 14:35 -7.33778 112.77807 3339 ft 206 kts 176°
2026-05-07 14:35 -7.35201 112.77898 3536 ft 198 kts 176°
2026-05-07 14:35 -7.36518 112.77982 3522 ft 181 kts 176°
2026-05-07 14:35 -7.37737 112.78061 3238 ft 175 kts 176°
2026-05-07 14:36 -7.38915 112.78140 3101 ft 160 kts 176°
2026-05-07 14:36 -7.39969 112.78204 2999 ft 148 kts 181°
2026-05-07 14:36 -7.40863 112.77749 2272 ft 160 kts 243°
2026-05-07 14:36 -7.41506 112.76872 1859 ft 164 kts 225°
2026-05-07 14:37 -7.42417 112.76083 1837 ft 180 kts 207°
2026-05-07 14:37 -7.44047 112.74256 1876 ft 179 kts 227°
2026-05-07 14:37 -7.44722 112.73248 1854 ft 177 kts 260°
2026-05-07 14:38 -7.44734 112.71978 1702 ft 187 kts 271°
2026-05-07 14:38 -7.44523 112.70606 1782 ft 205 kts 276°
2026-05-07 14:38 -7.44647 112.69146 1977 ft 213 kts 257°
2026-05-07 14:38 -7.45120 112.67737 2186 ft 219 kts 248°
2026-05-07 14:39 -7.45203 112.66283 1853 ft 198 kts 294°
2026-05-07 14:39 -7.44134 112.65630 1718 ft 218 kts
2026-05-07 14:39 -7.42641 112.65997 1261 ft 218 kts 30°
2026-05-07 14:39 -7.41444 112.66727 1308 ft 186 kts 29°
2026-05-07 14:40 -7.40624 112.67604 1266 ft 167 kts 63°
2026-05-07 14:40 -7.40115 112.68659 879 ft 168 kts 64°
2026-05-07 14:40 -7.39527 112.69604 731 ft 150 kts 52°
2026-05-07 14:40 -7.38843 112.70411 654 ft 161 kts 50°
2026-05-07 14:41 -7.38201 112.71396 534 ft 178 kts 61°
2026-05-07 14:41 -7.37894 112.72573 726 ft 169 kts 100°
2026-05-07 14:41 -7.37843 112.73812 389 ft 188 kts 70°
2026-05-07 14:41 -7.37521 112.75014 389 ft 160 kts 89°
2026-05-07 14:42 -7.37564 112.75940 210 ft 126 kts 96°
2026-05-07 14:42 -7.37701 112.76858 104 ft 136 kts 98°
2026-05-07 14:42 -7.37838 112.77794 10 ft 131 kts 99°
2026-05-07 14:42 -7.37966 112.78582 8 ft 120 kts 97°
2026-05-07 14:43 -7.38171 112.79734 148 ft 204 kts 98°
2026-05-07 14:43 -7.38482 112.81189 1129 ft 219 kts 102°
2026-05-07 14:43 -7.38789 112.82691 1940 ft 228 kts 101°
2026-05-07 14:43 -7.39083 112.84280 1852 ft 232 kts 99°
2026-05-07 14:44 -7.40029 112.85323 2090 ft 212 kts 184°
2026-05-07 14:44 -7.41385 112.84708 1829 ft 224 kts 211°
2026-05-07 14:44 -7.42684 112.83817 1570 ft 232 kts 233°
2026-05-07 14:44 -7.43052 112.82333 1760 ft 219 kts 267°
2026-05-07 14:45 -7.43096 112.80799 1842 ft 213 kts 268°
2026-05-07 14:45 -7.43125 112.79349 1962 ft 211 kts 269°
2026-05-07 14:45 -7.43086 112.77912 2190 ft 198 kts 274°
2026-05-07 14:45 -7.43029 112.76600 1937 ft 185 kts 269°
2026-05-07 14:46 -7.43032 112.75342 2018 ft 172 kts 264°
2026-05-07 14:46 -7.43190 112.74162 1959 ft 174 kts 263°
2026-05-07 14:46 -7.43321 112.72945 1892 ft 174 kts 262°
2026-05-07 14:46 -7.43564 112.71757 1896 ft 171 kts 255°
2026-05-07 14:47 -7.43883 112.70578 1870 ft 181 kts 258°
2026-05-07 14:47 -7.43760 112.69317 1979 ft 188 kts 296°
2026-05-07 14:47 -7.43003 112.68314 2479 ft 172 kts 316°
2026-05-07 14:47 -7.42101 112.67613 2939 ft 165 kts 328°
2026-05-07 14:48 -7.41041 112.67051 3025 ft 178 kts 335°
2026-05-07 14:48 -7.39950 112.66484 3360 ft 173 kts 327°
2026-05-07 14:48 -7.39014 112.65720 3180 ft 194 kts 327°
2026-05-07 14:48 -7.37631 112.65606 2079 ft 215 kts 24°
2026-05-07 14:49 -7.36800 112.66676 1930 ft 187 kts 68°
2026-05-07 14:49 -7.36309 112.67862 1683 ft 182 kts 70°
2026-05-07 14:49 -7.36159 112.69098 1534 ft 178 kts 95°
2026-05-07 14:49 -7.36346 112.70343 1349 ft 184 kts 101°
2026-05-07 14:50 -7.36645 112.71678 1281 ft 205 kts 104°
2026-05-07 14:50 -7.37019 112.73141 1056 ft 224 kts 103°
2026-05-07 14:50 -7.37347 112.74721 796 ft 235 kts 100°
2026-05-07 14:50 -7.37591 112.76354 571 ft 238 kts 99°
2026-05-07 14:51 -7.37860 112.77956 505 ft 225 kts 93°
2026-05-07 14:51 -7.36933 112.78859 792 ft 216 kts 347°
2026-05-07 14:51 -7.36028 112.77871 1255 ft 195 kts 282°
2026-05-07 14:51 -7.36577 112.76899 1132 ft 168 kts 186°
2026-05-07 14:52 -7.37677 112.77216 198 ft 162 kts 137°
2026-05-07 14:52 -7.37873 112.78069 8 ft 110 kts 108°
2026-05-07 14:52 -7.37993 112.78700 8 ft 69 kts 92°
2026-05-07 14:52 -7.38045 112.79066 5 ft 44 kts 99°
2026-05-07 14:53 -7.38087 112.79281 5 ft 10 kts 105°
2026-05-07 14:53 -7.38174 112.79361 4 ft 29 kts 164°
2026-05-07 14:53 -7.38376 112.79338 5 ft 28 kts 188°
2026-05-07 14:53 -7.38522 112.79251 5 ft 24 kts 254°
2026-05-07 14:54 -7.38553 112.79111 5 ft 19 kts 262°
2026-05-07 14:54 -7.38566 112.78982 5 ft 18 kts 271°
2026-05-07 14:54 -7.38564 112.78879 6 ft 7 kts 276°
2026-05-07 14:54 -7.38557 112.78875 6 ft 0 kts 359°